[[{"header":{"parameterUnit":"m.s-1","parameterCategory":1,"la1":30.2991,"la2":30.254,"lo1":-89.0895,"lo2":-89.0444,"dy":0.0017,"dx":0.0017,"nx":28,"ny":28,"refTime":"2024-03-07T03:00:00:Z","depth":0,"parameterNumber":2,"parameterNumberName":"U-component_of_WINDS"},"data":[0,0,0,0,0,0,0,0,0,0,0,0,0,0,0,0,0,0,0,0,0,0,0,0,0,0,0,0,0,0,0,0,0,0,0,0,0,0,0,0,0,0,0,0,0,0,0,0,0,0,0,0,0,0,0,0,0,0,1.4049,1.405,0,1.4187,1.4189,1.419,1.4138,1.4135,1.4132,1.4129,1.4277,1.4284,1.4291,0,0,0,0,0,0,0,0,0,0,0,0,0,1.3746,1.3751,1.4049,1.405,1.4052,1.4187,1.4189,1.4191,1.4139,1.4135,1.4131,1.4127,1.4275,1.4283,1.4292,0,0,0,0,0,0,0,0,0,0,0,0,0,1.388,1.3753,1.4048,1.4042,1.4043,1.4187,1.4189,1.4191,1.414,1.4135,1.413,1.4126,1.4272,1.4283,1.4293,1.4453,0,0,1.4325,1.4329,0,0,0,0,0,0,0,0,1.3873,1.3891,1.4041,1.4043,1.4044,1.414,1.4137,1.4279,1.4141,1.4103,1.4129,1.4123,1.4236,1.4249,1.4286,1.446,1.4466,1.4325,1.4332,1.4336,1.4339,0,0,0,0,0,0,0,1.3863,1.3885,1.4104,1.4044,1.4045,1.4035,1.4049,1.4163,1.4195,1.4106,1.4103,1.4119,1.4236,1.4276,1.4289,1.4468,1.4325,1.4334,1.4341,1.4345,1.4783,1.4788,0,0,0,0,0,0,1.3853,1.3878,1.4099,1.4108,1.3945,1.4044,1.406,1.4114,1.4194,1.4201,1.4123,1.4116,1.4261,1.4277,1.4294,1.4488,1.4336,1.4346,1.4352,1.4777,1.4784,1.479,0,0,0,0,0,0,1.3846,1.3873,1.4094,1.3992,1.4019,1.4054,1.4116,1.412,1.416,1.4206,1.4213,1.4158,1.4258,1.4279,1.4414,1.4492,1.4351,1.436,1.4771,1.4779,1.4787,1.4876,0,0,0,0,0,0,1.3838,1.3871,1.393,1.3993,1.4025,1.4209,1.4121,1.4126,1.4177,1.4169,1.4241,1.4248,1.4255,1.4398,1.4424,1.4504,1.4368,1.4764,1.4775,1.4784,1.4867,1.4887,1.4904,0,0,0,0,0,1.3827,1.3951,1.3934,1.3961,1.4099,1.4214,1.4232,1.4236,1.4183,1.4245,1.4275,1.4246,1.4479,1.4413,1.4441,1.4526,1.4759,1.4772,1.4783,1.4858,1.4883,1.4903,0,0,0,0,0,0,1.3898,1.3959,1.3941,1.4088,1.4146,1.4205,1.4282,1.4261,1.4337,1.4327,1.4331,1.4348,1.4486,1.4519,1.4444,1.4686,1.4612,1.463,1.4659,1.4683,1.4701,1.4691,1.4377,0,0,0,0,0,1.3931,1.4016,1.4066,1.4191,1.4221,1.4247,1.4297,1.4295,1.4356,1.4381,1.4421,1.4483,1.457,1.4628,1.4711,1.4871,1.4887,1.4943,1.4961,1.4976,1.4993,1.5082,1.5108,1.4829,1.4829,1.4829,0,0,1.4,1.4043,1.4098,1.4207,1.4251,1.4342,1.4268,1.4367,1.4435,1.4396,1.4525,1.4557,1.4627,1.4775,1.4842,1.4807,1.5073,1.4992,1.5003,1.5012,1.5097,1.5123,1.5147,1.4838,1.4836,1.4835,0,0,1.4172,1.4212,1.4322,1.4368,1.4436,1.4452,1.4479,1.4541,1.456,1.4689,1.4662,1.4744,1.4894,1.4946,1.4991,1.5184,1.5161,1.5211,1.5308,1.5395,1.5417,1.5436,1.5507,1.5532,1.5227,1.5227,1.5227,0,1.4249,1.4383,1.4382,1.4483,1.4533,1.45,1.4613,1.4658,1.4751,1.4787,1.4745,1.4934,1.4978,1.5139,1.5186,1.5223,1.5256,1.5203,1.5413,1.5433,1.5451,1.5518,1.5545,1.5233,1.5232,1.5232,1.5231,0,1.4476,1.4569,1.465,1.4738,1.4797,1.4904,1.4922,1.4982,1.4975,1.4996,1.513,1.5182,1.5275,1.5313,1.5308,1.5474,1.545,1.5411,1.5337,1.5483,1.5547,1.5572,1.5241,1.5239,1.5237,1.5236,0,0,1.4697,1.4783,1.4813,1.4853,1.4926,1.4999,1.5106,1.5195,1.5248,1.5313,1.5404,1.5532,1.5496,1.5548,1.5549,1.5624,1.5776,1.5576,1.5578,1.5613,1.5964,1.5994,1.6023,1.576,1.5765,1.5769,1.5958,0,1.4876,1.506,1.5063,1.5233,1.532,1.5291,1.5384,1.544,1.5463,1.5542,1.5568,1.566,1.5605,1.5636,1.571,1.5742,1.5847,1.5728,1.5847,1.5851,1.5832,1.6056,1.6088,1.6264,1.5983,1.5987,1.599,0,1.5109,1.518,1.5358,1.5419,1.5456,1.5539,1.5623,1.5698,1.5762,1.5774,1.5832,1.5821,1.5932,1.5854,1.6008,1.5927,1.5976,1.5999,1.6006,1.6019,1.593,1.6076,1.632,1.6348,1.6029,1.6026,1.6023,0,1.5255,1.5395,1.552,1.5555,1.5629,1.5689,1.5723,1.5781,1.5836,1.5909,1.5945,1.6031,1.6079,1.6146,1.616,1.6102,1.6316,1.6238,1.6331,1.6331,1.6378,1.6375,1.6635,1.6407,1.6407,1.6406,1.6406,0,1.5455,1.5566,1.5586,1.5664,1.5788,1.5791,1.5915,1.5944,1.5997,1.6081,1.6061,1.6141,1.6154,1.6238,1.6249,1.6376,1.6398,1.6412,1.6414,1.6415,1.6413,1.6448,1.6436,1.6414,1.6412,1.6411,1.6409,0,1.5639,1.5657,1.5792,1.585,1.5868,1.5957,1.6008,1.6084,1.6104,1.6211,1.6237,1.627,1.6368,1.6388,1.6504,1.6512,1.6663,1.6653,1.6641,1.6641,1.6733,1.6724,1.7025,1.7066,1.681,1.6813,1.6815,0,1.5766,1.585,1.5918,1.5972,1.6008,1.6096,1.6151,1.6158,1.6216,1.6296,1.6362,1.6457,1.6533,1.6691,1.6727,1.6816,1.6808,1.6908,1.6822,1.682,1.6812,1.6807,1.6816,1.6925,1.6927,1.693,1.6931,0,1.5991,1.5995,1.6074,1.6157,1.6222,1.6288,1.6351,1.6397,1.6413,1.648,1.6578,1.6637,1.6755,1.6851,1.694,1.6977,1.6959,1.6958,1.6984,1.6986,1.6977,1.6985,1.6688,1.6951,1.6949,1.6948,1.6947,1.6946,1.6151,1.6225,1.6284,1.6373,1.6421,1.648,1.6554,1.6583,1.6665,1.676,1.676,1.6868,1.6932,1.7049,1.7092,1.7178,1.7147,1.7185,1.7195,1.7205,1.7214,1.6962,1.7194,1.7194,1.7193,1.7193,1.7192,0,1.6376,1.6412,1.6494,1.6582,1.6652,1.6626,1.6694,1.6756,1.685,1.691,1.6985,1.7099,1.7192,1.7235,1.7327,1.7388,1.7382,1.7412,1.7408,1.7418,1.7235,1.7204,1.7416,1.7416,1.7416,1.7416,1.7416,1.7415,1.6501,1.6625,1.6638,1.6786,1.6823,1.6927,1.6968,1.7024,1.7071,1.7199,1.7275,1.7302,1.7356,1.7452,1.7536,1.7547,1.7582,1.7617,1.7624,1.7453,1.743,1.7409,1.7379,1.7624,1.7625,1.7799,1.7801,1.7802]},{"header":{"parameterUnit":"m.s-1","parameterCategory":1,"la1":30.2991,"la2":30.254,"lo1":-89.0895,"lo2":-89.0444,"dy":0.0017,"dx":0.0017,"nx":28,"ny":28,"refTime":"2024-03-07T03:00:00:Z","depth":0,"parameterNumber":3,"parameterNumberName":"V-component_of_WINDS"},"data":[0,0,0,0,0,0,0,0,0,0,0,0,0,0,0,0,0,0,0,0,0,0,0,0,0,0,0,0,0,0,0,0,0,0,0,0,0,0,0,0,0,0,0,0,0,0,0,0,0,0,0,0,0,0,0,0,0,0,0.8593,0.8594,0,0.8656,0.8657,0.8658,0.858,0.8578,0.8575,0.8572,0.8639,0.8644,0.8648,0,0,0,0,0,0,0,0,0,0,0,0,0,0.8407,0.8411,0.8593,0.8594,0.8595,0.8656,0.8657,0.8658,0.8581,0.8577,0.8574,0.8571,0.8638,0.8643,0.8648,0,0,0,0,0,0,0,0,0,0,0,0,0,0.8481,0.8412,0.8593,0.8564,0.8562,0.8656,0.8657,0.8658,0.8582,0.8577,0.8573,0.8569,0.8636,0.8642,0.8649,0.8776,0,0,0.8669,0.8672,0,0,0,0,0,0,0,0,0.8477,0.8488,0.8567,0.8566,0.8564,0.8606,0.8616,0.8698,0.8583,0.8574,0.8572,0.8567,0.8632,0.8639,0.866,0.8779,0.8782,0.867,0.8674,0.8677,0.8679,0,0,0,0,0,0,0,0.8472,0.8485,0.8618,0.8569,0.8566,0.8548,0.8553,0.8631,0.8626,0.8575,0.8569,0.8577,0.863,0.8654,0.8661,0.8783,0.867,0.8676,0.868,0.8683,0.9008,0.9012,0,0,0,0,0,0,0.847,0.8481,0.8616,0.862,0.8509,0.8554,0.8561,0.8597,0.8625,0.8625,0.8581,0.8574,0.8644,0.8653,0.8663,0.8813,0.8677,0.8683,0.8687,0.9003,0.9009,0.9014,0,0,0,0,0,0,0.8466,0.8483,0.8614,0.8549,0.8564,0.8562,0.8603,0.86,0.8624,0.863,0.8629,0.8606,0.8641,0.8654,0.8748,0.8814,0.8686,0.8692,0.8998,0.9005,0.9011,0.9114,0,0,0,0,0,0,0.8461,0.8482,0.853,0.8551,0.8568,0.8698,0.8607,0.8605,0.8635,0.8626,0.8653,0.8654,0.8639,0.8738,0.8755,0.8821,0.8697,0.8992,0.9001,0.9009,0.9104,0.9123,0.9139,0,0,0,0,0,0.8455,0.8557,0.8533,0.855,0.8628,0.8702,0.8712,0.8692,0.8641,0.8689,0.8693,0.8653,0.8804,0.8749,0.8766,0.8836,0.8987,0.8998,0.9008,0.9097,0.912,0.9139,0,0,0,0,0,0,0.8546,0.856,0.8533,0.8645,0.8673,0.8689,0.875,0.8717,0.8761,0.8751,0.8724,0.8731,0.8832,0.8843,0.8781,0.8959,0.8887,0.8902,0.8948,0.897,0.8987,0.8983,0.8703,0,0,0,0,0,0.8579,0.8638,0.8646,0.8745,0.876,0.8752,0.8784,0.8765,0.8794,0.8805,0.8816,0.8845,0.8898,0.8935,0.8985,0.9105,0.9109,0.9161,0.9178,0.9193,0.9206,0.9269,0.9292,0.9048,0.9048,0.9048,0,0,0.8649,0.8663,0.8702,0.8763,0.8783,0.8843,0.8763,0.8831,0.8876,0.8816,0.8905,0.8914,0.8944,0.9052,0.91,0.9064,0.9274,0.9206,0.9217,0.9223,0.9282,0.9305,0.9326,0.9055,0.9054,0.9052,0,0,0.8807,0.8824,0.8907,0.8927,0.8956,0.895,0.897,0.8991,0.8994,0.9082,0.9038,0.9091,0.9184,0.9207,0.9231,0.9395,0.9359,0.9411,0.9504,0.9565,0.9584,0.9601,0.9659,0.968,0.9424,0.9425,0.9425,0,0.889,0.898,0.8954,0.9025,0.9053,0.8999,0.9083,0.9104,0.9149,0.9169,0.9128,0.9242,0.9259,0.9371,0.941,0.9432,0.9453,0.9409,0.9583,0.96,0.9616,0.9671,0.9692,0.9431,0.943,0.9429,0.9429,0,0.908,0.9143,0.9206,0.9249,0.9284,0.9361,0.9347,0.9385,0.9363,0.9361,0.9452,0.9469,0.9521,0.9546,0.9526,0.9654,0.9631,0.9587,0.9515,0.9645,0.9697,0.9717,0.944,0.9437,0.9436,0.9434,0,0,0.93,0.9326,0.935,0.9368,0.9395,0.9443,0.9517,0.9566,0.9599,0.9631,0.9692,0.977,0.9729,0.9757,0.9738,0.9792,0.9919,0.9741,0.9742,0.9774,1.0061,1.0094,1.0119,0.9895,0.9899,0.9902,1.0058,0,0.9458,0.9586,0.9563,0.9687,0.9744,0.9692,0.9756,0.978,0.9779,0.9828,0.9827,0.9883,0.9824,0.984,0.9891,0.9893,0.9977,0.9882,0.9952,0.9955,0.9947,1.0146,1.0182,1.0329,1.0078,1.0081,1.0084,0,0.9661,0.9698,0.9827,0.9843,0.9866,0.9925,0.9967,1.0013,1.0038,1.0034,1.0063,1.0033,1.0106,1.0032,1.0131,1.0067,1.0094,1.0099,1.0104,1.0111,1.0028,1.0158,1.0375,1.0397,1.0115,1.0113,1.011,0,0.9808,0.9891,0.9979,0.9996,1.0017,1.0059,1.0069,1.009,1.012,1.0156,1.0176,1.0221,1.0246,1.0281,1.0265,1.0212,1.0367,1.0291,1.0366,1.0366,1.0402,1.0401,1.0627,1.0419,1.0418,1.0418,1.0418,0,0.9988,1.0069,1.0045,1.0099,1.0188,1.0161,1.025,1.0254,1.0272,1.0326,1.0283,1.0334,1.0309,1.0358,1.0345,1.043,1.0441,1.044,1.0436,1.0444,1.0444,1.0463,1.0452,1.0424,1.0423,1.0421,1.042,0,1.0169,1.0157,1.0248,1.0259,1.0264,1.0329,1.0338,1.0389,1.0383,1.0452,1.0466,1.0458,1.0514,1.05,1.0561,1.0552,1.0658,1.0641,1.065,1.0646,1.0721,1.0714,1.0968,1.0999,1.077,1.0773,1.0774,0,1.0286,1.0346,1.0363,1.0395,1.0409,1.0462,1.0492,1.0466,1.0499,1.053,1.0577,1.0628,1.0668,1.0758,1.0758,1.0804,1.0788,1.0873,1.0795,1.0801,1.0789,1.0786,1.0792,1.089,1.0892,1.0894,1.0896,0,1.0493,1.0483,1.0527,1.0569,1.0606,1.0638,1.0666,1.0695,1.0671,1.071,1.0765,1.0796,1.0856,1.0908,1.0949,1.096,1.0925,1.092,1.094,1.095,1.0953,1.0952,1.0693,1.0915,1.0913,1.0912,1.0911,1.091,1.0646,1.0697,1.0716,1.0766,1.0784,1.081,1.0857,1.0857,1.0902,1.0949,1.0931,1.0994,1.1015,1.1066,1.1082,1.1131,1.1098,1.1127,1.1134,1.1142,1.1151,1.0944,1.1138,1.1138,1.1137,1.1137,1.1136,0,1.0851,1.086,1.0906,1.0946,1.0985,1.0946,1.0974,1.101,1.1066,1.1087,1.1126,1.1189,1.1238,1.124,1.1285,1.1324,1.1309,1.1337,1.1334,1.1337,1.1178,1.1156,1.1348,1.1348,1.1348,1.1348,1.1348,1.1348,1.0963,1.1047,1.1038,1.113,1.1138,1.1199,1.1218,1.1242,1.1259,1.133,1.137,1.137,1.1384,1.1429,1.1472,1.1471,1.149,1.1524,1.1517,1.1369,1.1348,1.1328,1.1308,1.1528,1.1528,1.1672,1.1674,1.1675]}]]